#timestamp,LO_Frequency,Hit 
1499598015.5,286046933.5,N
1499598035.3,286046933.8,N
1499598055.2,286046933.6,N
1499598075.9,286046933.8,N
1499598095.7,286046931.0,N
1499598115.6,286046933.8,N
1499598135.4,286046933.0,N
1499598155.2,286046933.2,N
1499598175.1,286046932.6,N
1499598176.0,286046932.6,N
1499598195.8,286046933.8,N
1499598215.6,286046935.4,N
1499598235.4,286046933.2,N
1499598255.3,286046933.1,N
1499598275.1,286046930.9,N
1499598295.8,286046931.1,N
1499598315.7,286046929.8,N
1499598335.5,286046930.1,N
1499598355.3,286046929.9,N
1499598375.2,286046932.2,N
1499598395.0,286046929.8,N
1499598395.9,286046929.8,N
1499598415.7,286046932.0,N
1499598435.6,286046930.9,N
1499598455.4,286046932.1,N
1499598475.2,286046933.4,N
1499598495.1,286046931.0,N
1499598496.0,286046931.0,N
1499598515.8,286046933.9,N
1499598535.6,286046933.8,N
1499598555.5,286046932.9,N
1499598575.3,286046935.3,N
1499598595.1,286046935.0,N
1499598615.9,286046932.5,N
1499598635.7,286046935.4,N
1499598655.5,286046935.0,N
1499598675.3,286046934.7,N
1499598695.2,286046935.1,N
1499598715.0,286046935.2,N
1499598715.9,286046935.2,N
1499598735.7,286046932.8,N
1499598755.6,286046934.5,N
1499598775.4,286046934.9,N
1499598795.2,286046934.8,N
1499598815.1,286046934.1,N
1499598816.0,286046934.1,N
1499598835.8,286046936.8,N
1499598855.6,286046936.8,N
1499598875.5,286046935.3,N
1499598895.3,286046934.9,N
1499598915.1,286046935.5,N
1499598935.9,286046933.9,N
1499598955.7,286046932.5,N
1499598975.5,286046935.2,N
1499598995.4,286046934.0,N
1499599015.2,286046931.6,N
1499599035.0,286046929.7,N
1499599035.9,286046929.7,N
1499599055.8,286046932.1,N
1499599075.6,286046929.7,N
1499599095.4,286046931.6,N
1499599115.2,286046931.1,N
1499599135.1,286046930.9,N
1499599136.0,286046930.9,N
1499599155.8,286046931.1,N
1499599175.6,286046929.8,N
1499599195.5,286046930.3,N
1499599215.3,286046932.3,N
1499599235.1,286046935.2,N
1499599255.9,286046934.4,N
1499599275.7,286046934.0,N
1499599295.5,286046929.7,N
1499599315.4,286046929.5,N
1499599335.2,286046930.1,N
1499599355.0,286046931.9,N
1499599355.9,286046931.9,N
1499599375.8,286046931.9,N
1499599395.6,286046929.9,N
1499599415.4,286046930.7,N
1499599435.3,286046930.7,N
1499599455.1,286046930.4,N
1499599456.0,286046930.4,N
1499599475.8,286046930.4,N
1499599495.7,286046932.0,N
1499599515.5,286046929.5,N
1499599535.3,286046929.9,N
1499599555.1,286046934.0,N
1499599575.9,286046933.4,N
1499599595.7,286046932.5,N
1499599615.5,286046935.5,N
1499599635.4,286046935.0,N
1499599655.2,286046934.9,N
1499599675.0,286046936.6,N
1499599675.9,286046936.6,N
1499599695.8,286046937.1,N
1499599715.6,286046934.1,N
1499599735.4,286046936.6,N
1499599755.3,286046937.2,N
1499599775.1,286046934.9,N
1499599795.8,286046933.6,N
1499599815.7,286046931.1,N
1499599835.5,286046931.5,N
1499599855.3,286046930.2,N
1499599875.2,286046928.1,N
1499599895.9,286046928.5,N
1499599915.7,286046928.6,N
1499599935.6,286046926.7,N
1499599955.4,286046929.1,N
1499599975.2,286046929.2,N
1499599995.0,286046928.9,N
1499599996.0,286046928.9,N
1499600015.8,286046926.1,N
1499600035.6,286046928.5,N
1499600055.4,286046928.3,N
1499600075.3,286046928.0,N
1499600095.1,286046928.4,N
1499600115.8,286046928.9,N
1499600135.7,286046928.9,N
1499600155.5,286046932.3,N
1499600175.3,286046929.8,N
1499600195.2,286046931.4,N
1499600215.9,286046932.0,N
1499600235.7,286046933.8,N
1499600255.6,286046930.9,N
1499600275.4,286046933.9,N
1499600295.2,286046931.0,N
1499600315.1,286046931.3,N
1499600316.0,286046931.3,N
1499600335.8,286046931.1,N
1499600355.6,286046933.6,N
1499600375.4,286046931.3,N
1499600395.3,286046929.6,N
1499600415.1,286046933.2,N
1499600435.8,286046933.4,N
1499600455.7,286046931.2,N
1499600475.5,286046931.6,N
1499600495.3,286046932.1,N
1499600515.2,286046933.2,N
1499600535.0,286046933.0,N
1499600535.9,286046933.0,N
1499600555.7,286046931.5,N
1499600575.6,286046932.2,N
1499600595.4,286046931.7,N
1499600615.2,286046931.3,N
1499600635.1,286046932.9,N
1499600636.0,286046932.9,N
1499600655.8,286046934.7,N
1499600675.6,286046934.7,N
1499600695.5,286046933.1,N
1499600715.3,286046930.9,N
1499600735.1,286046932.9,N
1499600755.9,286046935.0,N
1499600775.7,286046934.4,N
1499600795.5,286046934.1,N
1499600815.3,286046934.8,N
1499600835.2,286046934.4,N
1499600855.0,286046935.2,N
1499600855.9,286046935.2,N
1499600875.7,286046935.1,N
1499600895.6,286046933.8,N
1499600915.4,286046933.1,N
1499600935.2,286046932.9,N
1499600955.1,286046933.6,N
1499600956.0,286046933.6,N
1499600975.8,286046933.1,N
1499600995.6,286046933.9,N
1499601015.5,286046932.7,N
1499601035.3,286046932.8,N
1499601055.1,286046932.8,N
1499601075.9,286046931.6,N
1499601095.7,286046930.3,N
1499601115.5,286046928.3,N
1499601135.4,286046928.6,N
1499601155.2,286046928.9,N
1499601175.0,286046929.0,N
1499601175.9,286046929.0,N
1499601195.8,286046928.8,N
1499601215.6,286046926.6,N
1499601235.4,286046926.6,N
1499601255.3,286046928.1,N
1499601275.1,286046928.7,N
1499601276.0,286046928.7,N
1499601295.8,286046928.9,N
1499601315.7,286046926.4,N
1499601335.5,286046928.3,N
1499601355.3,286046926.6,N
1499601375.1,286046926.4,N
1499601395.9,286046924.5,N
1499601415.7,286046926.1,N
1499601435.5,286046927.9,N
1499601455.4,286046927.9,N
1499601475.2,286046928.6,N
1499601495.0,286046926.3,N
1499601495.9,286046926.3,N
1499601515.8,286046927.3,N
1499601535.6,286046929.0,N
1499601555.4,286046928.0,N
1499601575.3,286046930.2,N
1499601595.1,286046927.7,N
1499601596.0,286046927.7,N
